Location: Chabot Space and Science Center
(37.8191°N, 122.1819°W)
Time: 15:53:55
(UTC-08:00)

ISS - Pass Details

Date: 07 December 2021
Orbit: 413 x 422 km, 51.6° (Epoch: 20 January)

Event Time Altitude Azimuth Distance (km) Brightness Sun altitude
Rises 17:22:09 0° 314° (NW) 2,384 0.4 -6.6°
Reaches altitude 10° 17:24:21 10° 322° (NW) 1,514 -0.7 -7.0°
Maximum altitude 17:27:35 41° 34° (NE) 624 -3.3 -7.6°
Drops below altitude 10° 17:30:48 10° 107° (ESE) 1,500 -1.4 -8.2°
Enters shadow 17:32:03 - 112° (ESE) 1,992 -0.7 -8.4°
